Hourly Data Report for October 07, 2015

All times are specified in Local Standard Time (LST). Add 1 hour to adjust for Daylight Saving Time where and when it is observed.

KITCHENER/WATERLOO
ONTARIO

43°27'39.000" N
80°22'43.000" W
321.60 m
6144239
71368
YKF

Download Data

Hourly Data (October 2015)
Hourly Data Report for October 7, 2015
Temp Definition
°C
Dew Point Temp Definition
°C
Rel Hum Definition
%
Wind Dir Definition
10's deg

Wind Spd Definition
km/h
Visibility Definition
km
Stn Press Definition
kPa
Hmdx Definition


Wind Chill Definition


Weather Definition


TIME
00:00 Legend Double Dagger 10.1 9.8 98 30 5 16.1 97.95     LegendNANA
01:00 Legend Double Dagger 9.3 9.2 99 30 5 4.8 97.95     Rain,Fog
02:00 Legend Double Dagger 9.9 9.8 99 30 9 1.0 97.95     Fog
03:00 Legend Double Dagger 10.2 10.1 99   0 4.0 97.93     Fog
04:00 Legend Double Dagger 9.6 9.5 99 22 5 6.4 97.90     Fog
05:00 Legend Double Dagger 10.3 10.2 99   0 8.1 97.91     Fog
06:00 Legend Double Dagger 10.9 10.8 99 18 5 6.4 97.91     Fog
07:00 Legend Double Dagger 10.6 10.5 99 28 4 4.0 97.95     Fog
08:00 Legend Double Dagger 12.6 12.1 97 27 13 11.3 97.99     LegendNANA
09:00 Legend Double Dagger 13.9 12.7 92 27 9 16.1 97.99     LegendNANA
10:00 Legend Double Dagger 16.3 12.7 79 25 15 16.1 98.01     LegendNANA
11:00 Legend Double Dagger 18.2 12.5 69 27 15 16.1 97.98     LegendNANA
12:00 Legend Double Dagger 19.2 13.1 67 29 18 16.1 97.97     LegendNANA
13:00 Legend Double Dagger 18.9 13.0 68 28 18 16.1 97.98     LegendNANA
14:00 Legend Double Dagger 19.7 12.3 62 27 26 16.1 97.93     LegendNANA
15:00 Legend Double Dagger 19.6 11.5 59 30 22 16.1 97.94     LegendNANA
16:00 Legend Double Dagger 17.9 11.2 65 32 21 16.1 97.99     LegendNANA
17:00 Legend Double Dagger 16.5 9.4 63 30 21 16.1 98.02     LegendNANA
18:00 Legend Double Dagger 13.8 9.1 73 31 15 16.1 98.07     LegendNANA
19:00 Legend Double Dagger 11.9 9.2 84 32 11 16.1 98.16     LegendNANA
20:00 Legend Double Dagger 10.5 7.4 81 32 11 16.1 98.22     LegendNANA
21:00 Legend Double Dagger 9.1 6.7 85 32 13 16.1 98.25     LegendNANA
22:00 Legend Double Dagger 7.7 6.5 92 34 9 16.1 98.27     LegendNANA
23:00 Legend Double Dagger 7.2 6.6 96 33 5 16.1 98.29     LegendNANA

Notes on Data Quality.

Legend

  • E = Estimated
  • M = Missing
  • NA = Not Available
  • ‡ = Partner data that is not subject to review by the National Climate Archives
Date modified: